Location: Newark
(44.1906°N, 75.9681°W)
Time: 01:34:49
(UTC+00:00)

Envisat - Pass Details

Date: 29 January 2020
Orbit: 764 x 766 km, 98.1° (Epoch: 25 February)

Event Time Altitude Azimuth Distance (km) Brightness Sun altitude
Rises 10:24:39 0° 31° (NNE) 3,241 6.6 -21.7°
Reaches altitude 10° 10:28:04 10° 55° (NE) 2,308 6.2 -21.1°
Maximum altitude 10:30:51 15° 89° (E) 1,994 6.2 -20.6°
Drops below altitude 10° 10:33:38 10° 123° (ESE) 2,298 6.4 -20.1°
Sets 10:36:59 0° 146° (SSE) 3,217 6.8 -19.5°
